Location: Hains Lake
(37.8540°N, 99.8578°W)
Time: 22:50:50
(UTC+00:00)

deb Explorer IX - Pass Details

Date: 27 April 2021
Orbit: 541 x 1098 km, 38.8° (Epoch: 13 May)

Event Time Altitude Azimuth Distance (km) Brightness Sun altitude
Rises 11:37:55 0° 259° (W) 2,724 - -2.7°
Exits shadow 11:38:38 - 259° (W) 2,435 ? -2.6°
Reaches altitude 10° 11:40:11 10° 259° (W) 1,805 ? -2.3°
Maximum altitude 11:44:16 90° 301° (WNW) 543 ? -1.5°
Drops below altitude 10° 11:48:24 10° 80° (E) 1,833 ? -0.7°
Sets 11:50:43 0° 81° (E) 2,771 ? -0.3°
